[[{"header":{"parameterUnit":"m.s-1","parameterCategory":1,"la1":30.2992,"la2":30.254,"lo1":-89.0895,"lo2":-89.0443,"dy":0.0025,"dx":0.0025,"nx":19,"ny":19,"refTime":"2026-04-09T09:00:00:Z","depth":0,"parameterNumber":2,"parameterNumberName":"U-component_of_WINDS"},"data":[0,0,0,-2.0325,-2.0325,-2.0329,-2.0329,-2.0356,-2.0357,0,0,0,0,0,0,0,0,0,0,0,-2.0336,-2.0336,-2.0325,-2.0325,-2.0329,-2.0329,-2.0356,-2.0357,0,0,0,0,0,0,0,0,0,0,0,-2.0335,-2.0336,-2.0337,-2.0325,-2.0329,-2.0329,-2.0356,-2.0346,0,0,0,0,0,0,0,0,0,0,-2.0338,-2.0359,-2.0336,-2.0337,-2.0326,-2.0329,-2.0329,-2.0345,-2.0346,-2.0363,0,-2.038,0,-2.0369,-2.036,-2.036,0,0,0,-2.0317,-2.0358,-2.0348,-2.0337,-2.0326,-2.033,-2.0325,-2.0345,-2.0347,-2.0366,-2.0381,-2.0381,-2.037,-2.036,-2.036,-2.0485,-2.0485,0,0,-2.0317,-2.0343,-2.0347,-2.035,-2.0349,-2.0325,-2.0325,-2.0346,-2.0365,-2.0381,-2.0381,-2.037,-2.036,-2.0361,-2.0484,-2.0485,0,0,0,-2.0322,-2.0343,-2.0332,-2.0349,-2.0348,-2.0326,-2.0326,-2.0364,-2.0358,-2.0381,-2.037,-2.0361,-2.0361,-2.0482,-2.0484,-2.0557,0,0,0,-2.0321,-2.0346,-2.0333,-2.0349,-2.0348,-2.0356,-2.0344,-2.0357,-2.0358,-2.037,-2.0361,-2.0362,-2.0481,-2.0483,-2.0553,-2.0588,0,0,0,-2.0331,-2.0347,-2.0351,-2.035,-2.0353,-2.0355,-2.035,-2.0356,-2.0352,-2.036,-2.0362,-2.0481,-2.0483,-2.0549,-2.0581,-2.0628,0,0,0,-2.035,-2.0417,-2.0353,-2.0424,-2.0353,-2.04,-2.035,-2.0383,-2.0399,-2.0361,-2.0481,-2.0484,-2.0548,-2.0577,-2.0624,-2.0672,-2.0695,0,0,-2.0449,-2.043,-2.0469,-2.0412,-2.0477,-2.0397,-2.0473,-2.0463,-2.0441,-2.0472,-2.0474,-2.0554,-2.0581,-2.0627,-2.0812,-2.083,0,0,0,-2.0509,-2.0538,-2.055,-2.0565,-2.0559,-2.0557,-2.0533,-2.0529,-2.0554,-2.0461,-2.0583,-2.0598,-2.0624,-2.0646,-2.0662,-2.0683,-2.0495,-2.0495,-2.0495,-2.0687,-2.0654,-2.0717,-2.0686,-2.0702,-2.0677,-2.0687,-2.0678,-2.0641,-2.067,-2.0679,-2.0795,-2.0821,-2.0833,-2.0855,-2.0702,-2.0702,-2.0702,-2.0703,-2.0829,-2.0865,-2.0813,-2.0856,-2.0822,-2.0859,-2.0838,-2.081,-2.084,-2.0785,-2.0807,-2.075,-2.0853,-2.0872,-2.0708,-2.0707,-2.0706,-2.0706,-2.0705,-2.0941,-2.0953,-2.0947,-2.0967,-2.0987,-2.0953,-2.0984,-2.0952,-2.0922,-2.0943,-2.0949,-2.0948,-2.0943,-2.0948,-2.0949,-2.0949,-2.095,-2.095,-2.095,-2.106,-2.1051,-2.1081,-2.1081,-2.1087,-2.1092,-2.1068,-2.1074,-2.1073,-2.1047,-2.1047,-2.1007,-2.0869,-2.0836,-2.0956,-2.0955,-2.0954,-2.0954,-2.0953,-2.1216,-2.1176,-2.1221,-2.1228,-2.1226,-2.1248,-2.1207,-2.1222,-2.1223,-2.1239,-2.1195,-2.1099,-2.1077,-2.1065,-2.1036,-2.1202,-2.1202,-2.1202,-2.1202,-2.1311,-2.1297,-2.1337,-2.135,-2.1359,-2.1326,-2.1381,-2.1364,-2.134,-2.1339,-2.131,-2.127,-2.1259,-2.1244,-2.1228,-2.1201,-2.1404,-2.1404,-2.1404,-2.1406,-2.1391,-2.1443,-2.1418,-2.1414,-2.1412,-2.1463,-2.1481,-2.1446,-2.1412,-2.1337,-2.1329,-2.1264,-2.1244,-2.1208,-2.1183,-2.1133,0,0]},{"header":{"parameterUnit":"m.s-1","parameterCategory":1,"la1":30.2992,"la2":30.254,"lo1":-89.0895,"lo2":-89.0443,"dy":0.0025,"dx":0.0025,"nx":19,"ny":19,"refTime":"2026-04-09T09:00:00:Z","depth":0,"parameterNumber":3,"parameterNumberName":"V-component_of_WINDS"},"data":[0,0,0,1.5222,1.5224,1.5277,1.5277,1.5339,1.534,0,0,0,0,0,0,0,0,0,0,0,1.5203,1.5203,1.5222,1.5224,1.5277,1.5277,1.5339,1.534,0,0,0,0,0,0,0,0,0,0,0,1.5203,1.5203,1.5204,1.5224,1.5277,1.5277,1.5339,1.5301,0,0,0,0,0,0,0,0,0,0,1.525,1.5229,1.5203,1.5204,1.5224,1.5277,1.5277,1.5299,1.5303,1.5312,0,1.532,0,1.5331,1.5343,1.5344,0,0,0,1.5226,1.5225,1.5243,1.5204,1.5225,1.5277,1.5254,1.5301,1.5306,1.5318,1.5321,1.5323,1.5332,1.5344,1.5344,1.539,1.539,0,0,1.5223,1.521,1.524,1.5246,1.5237,1.5252,1.5255,1.5304,1.5306,1.5321,1.5325,1.5333,1.5344,1.5345,1.539,1.539,0,0,0,1.5213,1.5208,1.5225,1.5243,1.5253,1.5253,1.5257,1.5304,1.5311,1.5325,1.5333,1.5344,1.5345,1.539,1.539,1.5382,0,0,0,1.5211,1.5202,1.5224,1.5216,1.5252,1.5279,1.5256,1.5307,1.5313,1.5333,1.5344,1.5346,1.5389,1.539,1.5382,1.538,0,0,0,1.5201,1.5201,1.5208,1.5215,1.5238,1.5279,1.5288,1.5309,1.5318,1.5344,1.5346,1.5389,1.539,1.5382,1.538,1.5389,0,0,0,1.5186,1.5199,1.5207,1.5226,1.5238,1.5274,1.5288,1.5316,1.5337,1.5345,1.5389,1.539,1.5382,1.538,1.5389,1.5393,1.5394,0,0,1.5196,1.52,1.5212,1.5221,1.5253,1.5267,1.5298,1.5329,1.5342,1.5373,1.5374,1.5382,1.538,1.5389,1.5404,1.5404,0,0,0,1.5211,1.522,1.5231,1.5251,1.5276,1.5297,1.5324,1.5336,1.5363,1.5356,1.5388,1.5387,1.5393,1.5396,1.5396,1.5402,1.539,1.539,1.539,1.5207,1.5225,1.5247,1.5271,1.529,1.532,1.5337,1.5357,1.5369,1.5376,1.5385,1.5393,1.5395,1.5396,1.5401,1.539,1.539,1.539,1.539,1.5224,1.5239,1.5256,1.5283,1.5301,1.5324,1.5353,1.5361,1.5385,1.5387,1.5393,1.5393,1.5396,1.5402,1.5389,1.5389,1.5389,1.5389,1.5389,1.5223,1.5233,1.5248,1.5279,1.5301,1.5326,1.5349,1.5365,1.538,1.5386,1.5398,1.5398,1.54,1.5391,1.5391,1.5391,1.5391,1.5391,1.5391,1.5215,1.5233,1.525,1.5278,1.5294,1.5316,1.5347,1.5362,1.5384,1.5394,1.5394,1.5405,1.5393,1.5389,1.5391,1.5391,1.5391,1.5391,1.5391,1.5225,1.5226,1.5252,1.5268,1.5303,1.5325,1.5346,1.5377,1.5392,1.5403,1.5413,1.5402,1.5407,1.5407,1.5404,1.5409,1.5409,1.5409,1.5409,1.5224,1.5229,1.526,1.5284,1.531,1.5332,1.5362,1.5386,1.5411,1.5422,1.5424,1.5422,1.5421,1.5427,1.5426,1.5423,1.5434,1.5434,1.5434,1.5231,1.5239,1.5261,1.5286,1.5316,1.534,1.5369,1.5396,1.5425,1.5435,1.5431,1.543,1.5427,1.5425,1.5433,1.5432,1.5428,0,0]}]]